Find Marecs 2

NORAD ID: 15386 Int'l Des: 1984-114 Owner: ESA Country: I-ESA operational
HEO

現在のビュー

3D地球を読み込み中...

Marecs 2について

説明を読み込み中...

次回通過

Passes for default location (London). Set your location on the main map for personalized predictions.

高度履歴

Loading altitude history...

軌道要素

1 15386U 84114B 26150.11865228 -.00000169 00000-0 00000+0 0 9994
2 15386 13.5099 333.0440 0113659 54.6334 120.2439 0.95929092112504
Epoch: May 30, 2026 • Age: 10 hours

現在のステータス

高度 37078.0 km
速度 3.03 km/s
衛星直下点 -8.43°S, 149.63°W
打ち上げ日 Nov 10, 1984
運用期間 41.5 years
タイプ other

技術仕様

分類 Payload
質量 580.00 kg
乾燥質量 470.00 kg
総質量 1050.00 kg
長さ 2.50 m
直径 2.00 m
スパン 13.80 m
形状 Box + 2 Pan
製造者 BAES
バスタイプ OTS
フェーズステータス In Orbit
所有者/国 ESA/I-ESA

Most Searched